Wind_Speed
33 34 34 36 34 33 34 31 28 27 23 20 18 15 14 13 10 7 5 3 3 4 5 7 11 15 14 13 13 13 13 17 20 19 17 13 14 12 11 13 14 15 15
30 31 33 35 36 35 35 33 31 25 22 21 18 16 16 14 12 8 7 7 5 5 5 4 4 8 11 11 12 14 12 12 12 13 12 13 12 10 12 13 15 15 17
34 32 32 36 36 37 36 33 32 24 22 21 19 18 17 16 13 10 9 8 8 7 6 5 4 4 6 7 9 11 11 11 13 12 13 12 10 11 14 15 14 15 18
42 34 37 39 37 37 36 35 32 27 24 22 22 20 19 16 14 12 8 6 6 7 9 7 6 5 5 6 7 7 8 10 11 11 10 9 11 12 14 13 13 15 19
44 43 40 42 38 39 36 34 34 28 26 24 24 22 20 18 16 13 10 7 5 5 6 7 6 5 5 5 5 5 5 8 9 10 9 11 12 13 12 12 13 17 21
47 46 42 42 42 40 38 38 36 29 28 26 26 24 22 20 16 15 11 9 7 4 5 5 6 5 4 4 4 4 6 7 8 8 9 10 12 10 11 13 15 19 24
46 41 44 43 40 37 43 41 36 31 30 29 28 27 24 21 18 16 13 11 10 7 5 5 6 5 5 4 4 4 5 7 7 9 9 9 8 10 14 15 19 24 29
50 44 37 45 38 35 38 42 38 33 32 33 30 30 27 24 21 18 15 14 13 11 9 7 6 7 7 7 7 6 7 7 7 7 6 8 11 14 15 18 23 27 30
56 52 51 43 43 37 38 40 39 37 33 35 33 30 28 26 24 20 16 16 15 13 11 10 8 8 7 5 4 4 4 5 6 7 9 11 10 11 16 21 25 29 32
59 57 56 52 45 42 40 42 42 39 36 36 36 32 31 29 26 23 19 17 17 15 11 13 13 12 10 9 6 6 7 8 8 8 10 12 12 15 20 23 27 31 33
60 63 60 57 53 45 42 41 42 43 42 39 37 36 34 31 29 27 23 21 20 18 16 13 13 15 14 11 10 11 11 13 11 12 13 15 18 20 22 24 28 32 33
63 67 65 61 57 53 50 44 43 44 44 42 37 37 37 34 31 30 27 25 22 21 20 17 16 16 16 17 13 14 16 16 17 17 18 18 20 22 25 28 31 35 36
72 68 69 65 62 56 55 51 45 46 47 46 40 38 39 38 36 34 31 30 28 24 22 21 20 20 20 20 16 17 19 21 21 20 21 23 24 26 28 31 32 36 37
76 73 72 69 64 61 56 56 53 49 47 46 43 40 39 41 40 38 35 33 32 31 27 23 21 22 22 20 21 21 26 26 26 24 26 28 29 29 32 32 34 36 37
74 77 75 73 69 66 60 56 56 53 51 48 47 46 43 41 42 41 39 36 35 33 29 25 25 25 27 28 29 30 30 30 28 27 31 29 30 33 32 35 35 36 39
75 76 79 76 74 72 66 60 57 56 55 53 50 50 47 45 44 43 41 39 38 36 33 32 32 32 30 31 32 31 32 29 30 32 31 31 32 34 34 37 37 39 41
71 79 78 79 78 76 74 66 59 59 57 57 56 53 50 48 46 45 43 41 39 38 38 38 39 37 35 33 35 35 33 32 31 30 33 33 36 37 36 36 40 41 42
56 65 79 78 81 79 77 75 70 62 57 57 57 56 54 51 48 47 46 44 43 42 42 41 41 40 38 37 35 34 35 35 36 38 36 36 35 35 36 39 41 42 44
61 57 71 82 82 83 81 77 74 69 66 59 57 57 56 54 52 51 50 49 47 46 45 44 43 42 41 39 40 39 38 38 39 42 40 40 38 38 39 41 43 45 47
59 57 60 76 85 84 83 80 75 72 68 66 63 59 57 55 53 52 53 52 50 48 46 44 43 43 43 45 44 41 41 41 42 43 42 41 41 42 43 45 46 48 48
61 58 54 68 77 83 83 81 80 74 70 68 68 67 66 61 57 57 54 51 49 48 47 48 48 47 48 48 44 41 41 41 41 42 44 43 44 45 47 49 50 49 49
63 57 53 57 69 77 83 82 80 80 76 70 66 66 67 66 64 61 59 57 54 52 50 50 50 52 50 47 43 45 44 44 43 44 45 47 48 50 51 52 51 51 51
66 60 55 54 57 66 75 83 83 78 77 77 74 71 69 67 65 62 63 59 57 55 54 56 54 53 50 47 48 47 46 45 47 48 48 49 51 53 54 53 53 51 50
69 63 58 57 57 63 66 73 79 81 80 80 79 78 73 67 68 66 66 65 60 60 57 56 54 51 51 51 50 49 49 49 50 51 50 51 53 54 55 54 52 50 49
72 68 63 59 60 61 66 69 74 78 79 78 77 76 76 73 68 68 65 62 60 58 57 55 54 53 53 52 53 53 53 53 52 53 51 52 53 53 54 54 50 49 47
78 73 69 66 63 64 72 74 75 77 78 77 77 77 74 72 70 70 69 65 62 60 59 57 56 56 56 56 57 56 55 54 53 50 50 50 53 55 56 53 49 47 46
Wind_Direction
215 216 211 208 208 211 213 214 207 211 215 210 203 202 203 203 199 200 200 217 238 239 231 231 232 229 230 228 237 243 248 246 255 264 268 268 278 293 307 312 326 332 335
219 204 208 202 204 207 211 211 209 213 216 210 201 201 205 203 207 213 217 217 230 224 212 207 209 215 224 230 227 244 247 255 257 259 253 269 286 299 311 325 330 331 333
200 199 211 205 206 206 207 211 210 212 214 208 204 201 206 210 220 225 225 231 223 221 205 187 192 203 207 212 224 231 235 243 254 242 258 271 286 310 326 327 331 331 337
197 197 208 201 202 206 205 212 216 214 212 210 206 203 207 215 222 229 229 228 217 220 221 203 193 188 194 207 209 220 233 243 246 254 268 281 294 316 323 328 336 336 338
195 198 202 202 201 206 203 212 213 208 208 208 204 205 206 217 223 230 226 220 208 217 212 212 203 196 207 213 217 237 252 254 256 265 283 288 303 319 329 333 334 335 340
197 201 204 204 200 211 210 210 211 205 204 206 205 205 210 217 223 228 227 222 214 222 225 213 207 205 194 190 203 222 246 253 262 279 292 303 310 322 327 324 328 336 338
194 204 202 200 199 209 211 210 209 204 205 207 207 210 212 214 220 224 227 218 211 218 209 213 211 213 217 222 228 233 247 262 279 294 307 314 317 316 322 322 327 333 338
194 190 204 203 198 216 214 209 209 206 205 208 212 213 216 216 220 224 229 223 215 220 217 218 218 212 219 229 231 241 257 272 285 298 322 323 315 320 324 325 333 335 334
198 197 198 208 202 207 220 215 214 210 208 209 212 215 217 220 223 227 229 229 225 224 231 227 212 195 190 211 235 248 256 271 281 293 302 329 331 327 321 328 329 330 331
203 202 200 201 202 207 217 222 212 218 211 212 213 217 216 221 225 228 229 231 231 228 231 225 224 222 224 232 240 265 269 293 303 310 309 310 312 314 317 323 327 330 329
208 205 203 203 208 205 213 223 221 218 216 215 216 217 221 221 225 228 232 235 235 235 234 232 239 241 246 245 259 279 284 278 288 293 295 299 303 307 312 317 325 328 327
209 207 206 208 210 213 214 218 226 225 220 222 222 218 223 225 226 228 232 234 237 236 232 237 239 247 253 243 264 285 291 290 286 288 293 299 305 309 310 311 318 324 324
210 210 209 211 211 216 218 218 221 227 226 222 222 221 223 224 227 229 232 234 235 243 247 251 257 253 251 256 263 280 284 290 285 286 289 292 299 302 306 310 312 318 321
212 212 212 211 215 214 219 221 223 222 228 227 223 226 227 227 227 229 231 235 239 240 245 249 256 257 258 261 263 275 283 288 291 284 292 296 296 301 304 312 314 317 321
214 214 213 214 214 219 215 220 221 223 224 229 230 227 229 232 231 231 232 235 239 244 247 247 256 256 260 264 267 274 280 283 286 284 293 294 296 299 298 308 309 315 320
217 217 216 215 216 217 220 217 222 224 223 225 227 231 232 231 232 234 233 235 238 241 245 247 251 253 259 259 264 270 278 280 285 288 290 290 289 290 301 306 310 316 318
219 218 220 218 217 219 218 219 218 224 224 226 228 229 231 230 232 234 236 236 236 240 241 244 249 252 258 260 264 270 273 275 276 282 287 287 291 291 301 305 312 315 316
216 220 223 221 221 220 221 222 222 222 226 227 228 229 230 231 231 234 236 239 242 242 242 244 248 252 258 262 264 266 262 261 283 295 297 295 296 297 301 306 310 312 312
223 228 223 221 222 221 221 223 227 228 228 228 228 230 230 231 232 233 236 239 242 245 246 248 250 253 256 260 262 262 260 272 286 289 290 292 295 297 300 303 307 310 311
224 226 225 220 221 223 222 222 225 227 229 228 226 229 232 231 232 233 236 239 241 243 244 246 248 251 253 256 256 262 268 274 280 284 286 289 292 295 298 302 304 306 306
222 224 225 219 220 223 223 224 226 224 224 225 225 225 228 229 233 238 237 235 236 240 244 247 248 252 253 253 257 266 272 277 279 283 286 289 291 294 296 299 302 305 306
221 222 223 223 222 223 224 224 226 227 225 226 228 229 228 229 229 230 240 242 244 245 245 246 248 247 248 251 259 266 274 279 281 282 285 287 290 293 296 299 302 305 306
220 219 221 223 219 222 224 226 227 228 230 230 228 228 229 228 228 229 230 239 242 242 241 241 240 243 249 255 262 269 273 276 279 282 285 288 291 294 297 300 303 304 304
219 217 217 218 216 219 221 224 226 227 228 229 231 232 232 232 231 232 234 233 233 234 233 237 243 249 253 259 265 269 273 275 279 281 284 288 291 294 298 300 301 303 304
219 218 217 215 217 214 222 224 227 228 229 230 232 234 236 235 237 234 235 237 238 238 241 244 248 254 260 264 266 270 274 276 279 284 287 289 291 293 296 299 300 302 303
218 218 216 215 211 212 222 224 226 227 229 231 233 233 234 236 237 239 240 241 242 243 244 248 251 255 258 263 267 269 271 273 278 280 283 286 288 291 294 298 298 299 301
Height
10822 10827 10832 10836 10841 10845 10849 10852 10856 10858 10860 10863 10865 10867 10869 10872 10874 10875 10876 10877 10877 10878 10878 10879 10880 10882 10884 10886 10887 10889 10890 10890 10892 10892 10892 10891 10890 10890 10889 10888 10885 10883 10881
10820 10825 10829 10833 10838 10842 10845 10849 10852 10855 10858 10861 10863 10866 10868 10871 10872 10874 10876 10877 10878 10879 10879 10879 10879 10880 10882 10885 10886 10887 10889 10891 10891 10891 10891 10890 10890 10889 10888 10886 10884 10883 10881
10816 10822 10827 10831 10835 10838 10842 10845 10849 10853 10856 10859 10861 10864 10866 10869 10871 10873 10874 10875 10877 10878 10878 10878 10879 10880 10882 10884 10885 10886 10888 10889 10889 10890 10889 10889 10889 10888 10887 10885 10884 10882 10880
10811 10819 10823 10828 10832 10835 10838 10842 10846 10850 10853 10856 10859 10862 10865 10867 10869 10871 10872 10874 10875 10876 10877 10878 10879 10880 10881 10883 10884 10885 10887 10888 10889 10889 10889 10888 10888 10888 10886 10885 10883 10881 10878
10807 10813 10818 10824 10829 10832 10835 10839 10843 10847 10850 10854 10857 10860 10862 10865 10867 10869 10871 10872 10874 10875 10876 10877 10878 10879 10880 10882 10883 10884 10886 10887 10888 10888 10888 10888 10887 10886 10885 10884 10882 10880 10878
10802 10809 10815 10820 10825 10829 10832 10835 10839 10844 10847 10851 10854 10857 10860 10863 10865 10867 10870 10871 10873 10874 10874 10876 10877 10878 10880 10881 10882 10884 10885 10886 10887 10887 10887 10887 10886 10885 10883 10882 10881 10879 10876
10796 10803 10810 10816 10821 10825 10829 10831 10836 10839 10844 10848 10852 10854 10857 10860 10863 10865 10868 10870 10872 10873 10874 10875 10876 10878 10879 10880 10882 10883 10884 10885 10885 10886 10886 10885 10885 10884 10883 10882 10880 10878 10874
10791 10797 10806 10811 10815 10821 10825 10828 10832 10836 10841 10845 10849 10851 10854 10858 10860 10863 10866 10869 10870 10872 10873 10875 10875 10877 10878 10880 10881 10882 10883 10884 10885 10885 10885 10885 10884 10883 10881 10880 10878 10876 10873
10786 10791 10797 10805 10810 10815 10821 10824 10828 10833 10838 10840 10844 10848 10851 10855 10858 10861 10864 10867 10869 10871 10872 10874 10875 10877 10878 10879 10880 10881 10882 10883 10883 10883 10884 10884 10883 10882 10880 10879 10877 10875 10872
10780 10786 10792 10797 10804 10809 10815 10819 10823 10829 10833 10836 10841 10845 10848 10852 10855 10859 10862 10865 10867 10869 10871 10873 10875 10876 10877 10878 10879 10880 10881 10882 10882 10882 10882 10882 10881 10881 10879 10878 10876 10874 10871
10772 10779 10785 10791 10797 10804 10809 10814 10818 10824 10828 10833 10837 10841 10844 10848 10852 10856 10859 10862 10865 10867 10869 10871 10872 10874 10876 10877 10878 10878 10880 10880 10881 10881 10880 10880 10880 10879 10878 10876 10874 10872 10869
10762 10768 10776 10783 10789 10796 10802 10807 10813 10818 10823 10827 10833 10837 10840 10845 10849 10852 10856 10859 10862 10864 10867 10868 10870 10872 10873 10874 10875 10877 10878 10878 10879 10879 10878 10878 10877 10876 10875 10873 10872 10869 10866
10751 10761 10768 10775 10782 10789 10794 10801 10807 10812 10817 10821 10828 10832 10836 10840 10844 10848 10852 10855 10858 10861 10863 10866 10867 10869 10871 10872 10873 10874 10875 10876 10876 10877 10876 10875 10874 10873 10872 10870 10868 10866 10863
10745 10752 10760 10768 10776 10782 10789 10794 10801 10806 10811 10816 10822 10827 10831 10835 10839 10843 10847 10851 10854 10857 10860 10862 10864 10866 10869 10870 10871 10871 10872 10873 10874 10874 10873 10872 10871 10870 10868 10867 10865 10862 10860
10735 10743 10750 10759 10766 10774 10782 10788 10793 10800 10805 10811 10816 10821 10826 10830 10834 10838 10842 10847 10849 10852 10855 10857 10860 10862 10864 10866 10867 10868 10869 10869 10870 10869 10869 10868 10867 10866 10864 10863 10861 10859 10856
10726 10733 10740 10750 10757 10764 10774 10781 10787 10793 10799 10804 10810 10815 10820 10825 10828 10832 10837 10841 10844 10848 10850 10852 10854 10857 10859 10861 10863 10864 10865 10865 10866 10865 10865 10864 10863 10862 10860 10858 10857 10854 10851
10712 10721 10729 10739 10748 10755 10763 10772 10779 10784 10791 10798 10803 10808 10813 10819 10822 10826 10831 10836 10838 10841 10844 10847 10849 10851 10854 10855 10857 10859 10860 10861 10861 10861 10860 10860 10858 10857 10856 10854 10851 10848 10846
10702 10714 10719 10731 10737 10746 10753 10762 10769 10777 10783 10790 10795 10801 10806 10811 10816 10819 10825 10829 10832 10836 10838 10840 10842 10845 10848 10850 10852 10853 10855 10855 10854 10854 10854 10854 10853 10852 10851 10849 10847 10844 10841
10692 10700 10706 10716 10725 10734 10744 10753 10760 10769 10776 10782 10787 10792 10798 10802 10807 10812 10817 10822 10825 10829 10832 10834 10836 10839 10841 10843 10845 10847 10848 10848 10848 10849 10849 10848 10847 10846 10845 10844 10842 10838 10835
10682 10686 10691 10701 10711 10722 10733 10744 10752 10760 10766 10772 10778 10783 10789 10794 10798 10803 10808 10813 10817 10821 10824 10827 10830 10832 10835 10837 10838 10840 10841 10841 10842 10843 10842 10842 10841 10840 10839 10838 10836 10833 10830
10669 10676 10682 10688 10699 10711 10722 10733 10740 10745 10752 10759 10766 10773 10779 10785 10790 10793 10799 10803 10808 10813 10816 10819 10823 10825 10828 10830 10832 10833 10833 10834 10835 10835 10835 10835 10834 10833 10833 10831 10829 10826 10823
10657 10666 10672 10678 10688 10698 10708 10717 10723 10733 10741 10750 10759 10766 10770 10775 10780 10785 10789 10794 10799 10804 10808 10812 10815 10817 10820 10823 10825 10826 10826 10827 10828 10828 10828 10827 10826 10825 10825 10823 10821 10818 10814
10647 10657 10665 10669 10677 10686 10693 10702 10712 10722 10732 10741 10746 10750 10756 10763 10769 10776 10782 10785 10789 10794 10799 10804 10807 10809 10812 10814 10817 10818 10818 10820 10821 10821 10820 10819 10817 10817 10816 10815 10813 10810 10806
10635 10645 10653 10660 10668 10675 10684 10690 10697 10704 10715 10721 10730 10737 10746 10756 10761 10767 10772 10777 10781 10785 10790 10795 10797 10799 10803 10805 10807 10808 10810 10812 10813 10814 10813 10811 10810 10808 10807 10806 10804 10801 10798
10622 10632 10642 10649 10657 10665 10671 10677 10683 10693 10703 10711 10720 10728 10736 10744 10751 10756 10760 10766 10771 10776 10780 10783 10786 10789 10792 10794 10797 10799 10801 10802 10804 10804 10804 10803 10802 10801 10800 10798 10795 10792 10790
10607 10618 10629 10637 10646 10653 10656 10662 10672 10680 10692 10701 10707 10716 10723 10731 10738 10744 10749 10755 10761 10765 10768 10773 10776 10778 10781 10784 10787 10790 10792 10793 10795 10796 10796 10794 10793 10792 10791 10791 10788 10786 10783